Find Starlink 30172

NORAD ID: 57410 Int'l Des: 2023-102 Owner: SPXS Country: US Constellation: starlink operational
LEOCIRCULAR

当前视图

正在加载3D地球...

关于 Starlink 30172

正在加载描述...

即将过境

Passes for default location (London). Set your location on the main map for personalized predictions.

高度历史

Loading altitude history...

两行轨道根数

1 57410U 23102G 26159.13116433 -.00000287 00000-0 -92532-6 0 9996
2 57410 43.0049 98.5072 0000819 263.5585 96.5174 15.27572939160067
Epoch: Jun 8, 2026 • Age: 15 hours

当前状态

高度 492.4 km
速度 7.62 km/s
星下点 -34.58°S, 150.61°E
发射日期 Jul 19, 2023
运行时间 2.8 years
类型 internet

技术详情

分类 Payload
质量 730.00 kg
干质量 700.00 kg
总质量 730.00 kg
长度 0.30 m
直径 4.10 m
跨度 29.00 m
形状 Box + pan
制造商 SPXS
平台类型 Starlink V2M
阶段状态 In Orbit
所有者/国家 SPXS/US

Most Searched